Location: Asheville, NC
(35.6000°N, 82.5500°W)
Time: 10:13:49

AO-85 - Pass Details

Date: 17 March 2018
Orbit: 504 x 781 km, 64.8° (Epoch: 15 March)

Event Time Altitude Azimuth Distance (km) Brightness Sun altitude
Rises 07:04:22 0° 337° (NNW) 3,141 ? -7.7°
Reaches altitude 10° 07:06:49 10° 345° (NNW) 2,252 ? -7.2°
Maximum altitude 07:11:45 42° 56° (NE) 1,089 ? -6.2°
Drops below altitude 10° 07:16:49 10° 126° (SE) 2,322 ? -5.2°
Sets 07:19:22 0° 133° (SE) 3,250 ? -4.6°
